Location: Ferchesar
(52.6477°N, 12.4298°E)
Time: 20:46:18
(UTC+01:00)

Altair - All Passes

Search period start: 04 March 2021 00:00
Search period end: 14 March 2021 00:00
Orbit: 1501 x 1682 km, 47.2° (Epoch: 03 March)

Date Brightness Start Highest point End Pass type
(mag) Time Alt. Az. Time Alt. Az. Time Alt. Az.
04 Mar - 00:04:46 10° W 00:13:36 45° SSW 00:22:46 10° SE visible
04 Mar - 02:10:17 10° W 02:16:31 19° SW 02:22:54 10° S night (unlit)
04 Mar - 17:30:33 10° S 17:37:31 25° SE 17:44:35 10° E daylight
04 Mar - 19:31:47 10° SW 19:40:35 52° SSE 19:49:41 10° E visible
04 Mar - 21:35:24 10° W 21:44:34 64° S 21:54:06 10° ESE visible
04 Mar - 23:39:37 10° W 23:48:30 47° SSW 23:57:42 10° SE visible
05 Mar - 01:44:55 10° W 01:51:30 21° SW 01:58:14 10° S night (unlit)
05 Mar - 17:05:50 10° S 17:12:31 23° SE 17:19:17 10° E daylight
05 Mar - 19:06:45 10° SW 19:15:30 50° SSE 19:24:30 10° E visible
05 Mar - 21:10:17 10° W 21:19:26 64° S 21:28:55 10° ESE visible
05 Mar - 23:14:28 10° W 23:23:24 49° SSW 23:32:38 10° SE visible
06 Mar - 01:19:36 10° W 01:26:28 23° SW 01:33:31 10° S visible
06 Mar - 16:41:10 10° S 16:47:31 21° SE 16:53:56 10° E daylight
06 Mar - 18:41:45 10° SW 18:50:24 48° SSE 18:59:18 10° E visible
06 Mar - 20:45:10 10° WSW 20:54:17 64° S 21:03:44 10° E visible
06 Mar - 22:49:20 10° W 22:58:17 51° SSW 23:07:33 10° SE visible
07 Mar - 00:54:19 10° W 01:01:26 24° SW 01:08:46 10° S visible
07 Mar - 16:16:33 10° S 16:22:32 20° SE 16:28:33 10° E daylight
07 Mar - 18:16:44 10° SW 18:25:19 46° SSE 18:34:07 10° E visible
07 Mar - 20:20:04 10° WSW 20:29:09 64° S 20:38:35 10° E visible
07 Mar - 22:24:12 10° W 22:33:10 53° SSW 22:42:28 10° SE visible
08 Mar - 00:29:03 10° W 00:36:24 26° SW 00:43:58 10° S visible
08 Mar - 15:51:59 10° SSE 15:57:32 18° SE 16:03:08 10° E daylight
08 Mar - 17:51:46 10° SW 18:00:15 44° SSE 18:08:55 10° E daylight
08 Mar - 19:54:57 10° WSW 20:04:01 64° S 20:13:24 10° E visible
08 Mar - 21:59:04 10° W 22:08:03 54° SSW 22:17:21 10° SE visible
09 Mar - 00:03:48 10° W 00:11:22 28° SW 00:19:08 10° SSE visible
09 Mar - 15:27:30 10° SSE 15:32:33 16° SE 15:37:39 10° E daylight
09 Mar - 17:26:48 10° SW 17:35:10 42° SSE 17:43:44 10° E daylight
09 Mar - 19:29:51 10° WSW 19:38:54 63° S 19:48:14 10° E visible
09 Mar - 21:33:56 10° W 21:42:56 56° SSW 21:52:15 10° ESE visible
09 Mar - 23:38:35 10° W 23:46:19 30° SW 23:54:17 10° SSE visible
10 Mar - 15:03:07 10° SSE 15:07:35 15° SE 15:12:05 10° E daylight
10 Mar - 17:01:50 10° SSW 17:10:07 40° SSE 17:18:32 10° E daylight
10 Mar - 19:04:45 10° WSW 19:13:46 62° S 19:23:03 10° E visible
10 Mar - 21:08:48 10° W 21:17:49 57° SSW 21:27:08 10° ESE visible
10 Mar - 23:13:22 10° W 23:21:16 31° SW 23:29:23 10° SSE visible
11 Mar - 14:38:53 10° SSE 14:42:38 13° SE 14:46:23 10° E daylight
11 Mar - 16:36:54 10° SSW 16:45:04 38° SSE 16:53:21 10° E daylight
11 Mar - 18:39:40 10° WSW 18:48:39 61° S 18:57:53 10° E visible
11 Mar - 20:43:41 10° W 20:52:42 58° SSW 21:02:00 10° ESE visible
11 Mar - 22:48:11 10° W 22:56:12 33° SW 23:04:28 10° SSE visible
12 Mar - 00:58:05 10° WSW 00:58:32 10° WSW 00:58:59 10° SW visible
12 Mar - 14:14:54 10° SE 14:17:40 12° SE 14:20:26 10° ESE daylight
12 Mar - 16:11:59 10° SSW 16:20:01 36° SE 16:28:08 10° E daylight
12 Mar - 18:14:35 10° WSW 18:23:32 60° SSE 18:32:43 10° E daylight
12 Mar - 20:18:34 10° W 20:27:34 60° SSW 20:36:52 10° ESE visible
12 Mar - 22:22:59 10° W 22:31:08 35° SW 22:39:32 10° SSE visible
13 Mar - 00:30:53 10° WSW 00:33:34 11° SW 00:36:16 10° SW visible
13 Mar - 13:51:48 10° SE 13:52:43 10° ESE 13:53:38 10° ESE daylight
13 Mar - 15:47:05 10° SSW 15:54:58 34° SE 16:02:56 10° E daylight
13 Mar - 17:49:30 10° WSW 17:58:25 59° SSE 18:07:33 10° E daylight
13 Mar - 19:53:26 10° W 20:02:27 61° S 20:11:44 10° ESE visible
13 Mar - 21:57:49 10° W 22:06:04 37° SW 22:14:35 10° SSE visible
